FW2288 Weather Reports


time (UTC)temp
F
wind
direction
speed
knots
gust
knots
rain 1hr
in
rain 24hr
in
rain mn
in
humidity
%
barometer
mb
20260505114600 52 192 2.6 5.2 0.00 0.00 0.00 68 1013.4
20260505114051 52 199 3.5 5.2 0.00 0.00 0.00 68 1013.4
20260505113550 52 191 2.6 5.2 0.00 0.00 0.00 68 1013.4
20260505113055 52 194 2.6 4.3 0.00 0.00 0.00 68 1013.4
20260505112547 52 205 2.6 4.3 0.00 0.00 0.00 68 1013.5
20260505112049 52 208 2.6 4.3 0.00 0.00 0.00 68 1013.3
20260505111555 52 216 1.7 3.5 0.00 0.00 0.00 68 1013.2
20260505111048 52 220 1.7 3.5 0.00 0.00 0.00 67 1013.3
20260505110548 52 222 2.6 3.5 0.00 0.00 0.00 66 1013.2
20260505102048 52 203 3.5 7.0 0.00 0.00 0.00 66 1012.8
20260505101553 52 184 4.3 7.0 0.00 0.00 0.00 66 1012.7
20260505101049 52 195 4.3 7.0 0.00 0.00 0.00 66 1012.7
20260505100550 52 196 3.5 6.1 0.00 0.00 0.00 66 1012.8
20260505100052 52 209 3.5 6.1 0.00 0.00 0.00 66 1012.8
20260505095549 52 187 3.5 5.2 0.00 0.00 0.00 66 1012.7
20260505095046 53 186 3.5 5.2 0.00 0.00 0.00 65 1012.6
20260505094554 53 177 3.5 5.2 0.00 0.00 0.00 65 1012.8
20260505094051 53 186 2.6 5.2 0.00 0.00 0.00 64 1012.8
20260505093552 53 208 2.6 5.2 0.00 0.00 0.00 64 1012.9
20260505093055 54 206 2.6 5.2 0.00 0.00 0.00 63 1012.7
20260505092549 54 205 3.5 5.2 0.00 0.00 0.00 63 1012.8
20260505092049 54 196 3.5 5.2 0.00 0.00 0.00 63 1012.7
20260505091552 54 207 2.6 5.2 0.00 0.00 0.00 62 1012.9
20260505091048 54 207 2.6 4.3 0.00 0.00 0.00 62 1012.9
20260505090546 54 207 2.6 6.1 0.00 0.00 0.00 62 1012.8
20260505090054 54 195 2.6 6.1 0.00 0.00 0.00 62 1012.8
20260505085552 54 174 3.5 6.1 0.00 0.00 0.00 62 1012.9
20260505085049 54 167 3.5 6.1 0.00 0.00 0.00 62 1012.8
20260505084555 54 172 3.5 6.1 0.00 0.00 0.00 63 1012.8
20260505084050 54 181 4.3 6.1 0.00 0.00 0.00 63 1012.8
20260505083548 54 172 4.3 7.0 0.00 0.00 0.00 62 1012.8
20260505083052 54 184 4.3 7.0 0.00 0.00 0.00 62 1012.9
20260505082548 54 176 4.3 7.0 0.00 0.00 0.00 63 1012.9
20260505082049 54 175 4.3 7.0 0.00 0.00 0.00 63 1012.8
20260505081600 54 176 4.3 7.0 0.00 0.00 0.00 63 1012.8
20260505081048 53 179 4.3 6.1 0.00 0.00 0.00 63 1012.7
20260505080549 53 197 2.6 3.5 0.00 0.00 0.00 63 1012.5
20260505080054 53 205 1.7 2.6 0.00 0.00 0.00 63 1012.4
20260505075547 53 255 0.9 3.5 0.00 0.00 0.00 63 1012.5
20260505075049 54 0 1.7 3.5 0.00 0.00 0.00 62 1012.3
20260505074600 54 326 0.9 4.3 0.00 0.00 0.00 61 1012.3
20260505074047 55 210 1.7 7.0 0.00 0.00 0.00 60 1012.3
20260505073548 55 199 3.5 9.6 0.00 0.00 0.00 60 1012.2
20260505073104 55 188 5.2 10.4 0.00 0.00 0.00 60 1012.1
20260505072549 55 184 6.1 10.4 0.00 0.00 0.00 59 1012.2
20260505072048 55 200 6.1 11.3 0.00 0.00 0.00 60 1011.9
20260505071602 55 173 7.0 13.0 0.00 0.00 0.00 59 1011.8
20260505071049 55 162 6.1 13.0 0.00 0.00 0.00 59 1011.8
20260505070549 55 168 7.8 13.0 0.00 0.00 0.00 59 1011.7
20260505070055 55 186 7.8 13.9 0.00 0.00 0.00 59 1011.7
20260505065549 55 194 7.0 13.9 0.00 0.00 0.00 59 1011.8
20260505065048 55 181 7.0 12.2 0.00 0.00 0.00 59 1011.8
20260505064553 55 181 6.1 12.2 0.00 0.00 0.00 59 1011.8
20260505064047 55 199 6.1 10.4 0.00 0.00 0.00 59 1011.8
20260505063548 55 200 5.2 10.4 0.00 0.00 0.00 59 1011.9
20260505063055 55 196 5.2 10.4 0.00 0.00 0.00 59 1011.9
20260505062548 55 188 5.2 10.4 0.00 0.00 0.00 58 1011.8
20260505062048 56 207 6.1 10.4 0.00 0.00 0.00 58 1011.8
20260505061604 56 205 6.1 11.3 0.00 0.00 0.00 57 1011.8
20260505061047 56 178 6.1 12.2 0.00 0.00 0.00 57 1011.8
20260505060549 56 231 7.8 13.9 0.00 0.00 0.00 56 1011.8
20260505055549 57 185 8.7 14.8 0.00 0.00 0.00 55 1011.9
20260505055049 57 183 8.7 16.5 0.00 0.00 0.00 55 1011.8
20260505054629 57 209 8.7 16.5 0.00 0.00 0.00 55 1011.7
20260505054048 57 191 9.6 15.6 0.00 0.00 0.00 55 1011.7
20260505053550 57 181 8.7 17.4 0.00 0.00 0.00 55 1011.7
20260505053114 57 191 9.6 17.4 0.00 0.00 0.00 55 1011.7
20260505052551 57 176 8.7 19.1 0.00 0.00 0.00 55 1011.6
20260505052046 57 210 10.4 19.1 0.00 0.00 0.00 54 1011.7
20260505051601 57 186 9.6 15.6 0.00 0.00 0.00 54 1011.7
20260505051049 57 194 7.8 13.9 0.00 0.00 0.00 55 1011.8
20260505050548 57 211 8.7 13.9 0.00 0.00 0.00 55 1011.8
20260505041558 57 209 7.8 10.4 0.00 0.00 0.00 54 1011.9
20260505041049 57 166 7.0 11.3 0.00 0.00 0.00 54 1011.9
20260505040549 57 184 7.0 11.3 0.00 0.00 0.00 53 1012.0
20260505040058 58 181 7.0 11.3 0.00 0.00 0.00 53 1012.1
20260505035549 58 179 7.8 11.3 0.00 0.00 0.00 53 1012.1
20260505035048 58 195 5.2 9.6 0.00 0.00 0.00 53 1012.2
20260505034553 58 187 6.1 10.4 0.00 0.00 0.00 53 1012.2
20260505034049 58 184 7.0 10.4 0.00 0.00 0.00 53 1012.1
20260505033548 58 174 7.0 12.2 0.00 0.00 0.00 53 1012.2
20260505033053 58 182 7.0 12.2 0.00 0.00 0.00 53 1012.3
20260505032549 58 195 7.8 13.0 0.00 0.00 0.00 53 1012.3
20260505032048 58 186 7.8 13.0 0.00 0.00 0.00 53 1012.4
20260505031607 58 174 7.8 12.2 0.00 0.00 0.00 53 1012.4
20260505031049 58 167 7.8 12.2 0.00 0.00 0.00 53 1012.5
20260505030549 58 150 8.7 12.2 0.00 0.00 0.00 54 1012.4
20260505030058 58 171 7.8 12.2 0.00 0.00 0.00 54 1012.5
20260505025548 58 199 7.8 12.2 0.00 0.00 0.00 54 1012.7
20260505025050 59 185 7.8 12.2 0.00 0.00 0.00 54 1012.7
20260505024550 59 220 7.0 13.9 0.00 0.00 0.00 55 1012.6
20260505024048 59 162 7.8 13.9 0.00 0.00 0.00 55 1012.7
20260505023552 59 193 7.8 13.9 0.00 0.00 0.00 55 1012.6
20260505023106 59 175 7.0 12.2 0.00 0.00 0.00 55 1012.6
20260505022548 59 178 7.8 12.2 0.00 0.00 0.00 55 1012.7
20260505022048 59 183 6.1 10.4 0.00 0.00 0.00 55 1012.7
20260505021554 59 191 6.1 10.4 0.00 0.00 0.00 55 1012.7
20260505021048 60 185 6.1 12.2 0.00 0.00 0.00 55 1012.7
20260505020552 60 173 7.0 12.2 0.00 0.00 0.00 55 1012.7
20260505020054 60 163 7.0 12.2 0.00 0.00 0.00 55 1012.7
20260505015547 60 194 6.1 12.2 0.00 0.00 0.00 55 1012.7
20260505015049 60 190 7.0 12.2 0.00 0.00 0.00 55 1012.7
20260505014601 60 190 5.2 11.3 0.00 0.00 0.00 55 1012.6
20260505014048 60 189 6.1 10.4 0.00 0.00 0.00 55 1012.7
20260505013547 60 181 5.2 10.4 0.00 0.00 0.00 55 1012.7
20260505013105 60 186 6.1 10.4 0.00 0.00 0.00 55 1012.6
20260505012548 61 194 7.0 10.4 0.00 0.00 0.00 54 1012.7
20260505012047 61 188 6.1 10.4 0.00 0.00 0.00 55 1012.6
20260505011552 61 179 6.1 10.4 0.00 0.00 0.00 54 1012.6
20260505011048 61 168 6.1 11.3 0.00 0.00 0.00 54 1012.5
20260505010545 61 182 6.1 11.3 0.00 0.00 0.00 54 1012.5
20260505005548 62 157 6.1 11.3 0.00 0.00 0.00 53 1012.3
20260505005048 62 174 6.1 11.3 0.00 0.00 0.00 53 1012.1
20260505004558 62 191 6.1 11.3 0.00 0.00 0.00 53 1012.1
20260505004046 62 186 6.1 13.9 0.00 0.00 0.00 53 1012.0
20260505003548 62 186 6.1 14.8 0.00 0.00 0.00 52 1011.9
20260505003053 63 188 8.7 14.8 0.00 0.00 0.00 52 1011.8
20260505002547 63 170 7.0 12.2 0.00 0.00 0.00 52 1011.7
20260505002049 63 200 6.1 13.9 0.00 0.00 0.00 51 1011.7
20260505001554 63 164 7.8 14.8 0.00 0.00 0.00 51 1011.8
20260505001050 64 200 8.7 14.8 0.00 0.00 0.00 50 1011.8
20260505000548 64 181 7.0 13.9 0.00 0.00 0.00 50 1011.6
20260505000114 64 176 7.0 12.2 0.00 0.00 0.00 50 1011.7
20260504235548 64 179 7.0 13.9 0.00 0.00 0.00 50 1011.8
20260504235049 65 174 7.8 13.9 0.00 0.00 0.00 49 1011.6
20260504234555 65 161 5.2 12.2 0.00 0.00 0.00 49 1011.6
20260504234049 65 165 5.2 12.2 0.00 0.00 0.00 48 1011.6
20260504233551 65 136 6.1 12.2 0.00 0.00 0.00 48 1011.6
20260504233055 66 174 6.1 12.2 0.00 0.00 0.00 48 1011.6
20260504232550 66 172 7.0 13.0 0.00 0.00 0.00 46 1011.5
20260504232050 66 194 7.0 16.5 0.00 0.00 0.00 46 1011.5
20260504231552 66 155 7.8 16.5 0.00 0.00 0.00 47 1011.6
20260504231049 66 192 7.8 14.8 0.00 0.00 0.00 47 1011.3
20260504230551 67 178 7.8 14.8 0.00 0.00 0.00 46 1011.3
20260504230104 67 160 6.1 11.3 0.00 0.00 0.00 47 1011.4
20260504225551 67 210 6.1 11.3 0.00 0.00 0.00 46 1011.6
20260504225049 68 181 5.2 14.8 0.00 0.00 0.00 47 1011.4
20260504224552 68 212 5.2 14.8 0.00 0.00 0.00 46 1011.5
20260504224051 68 197 6.1 13.0 0.00 0.00 0.00 46 1011.4
20260504223550 68 190 7.8 13.0 0.00 0.00 0.00 45 1011.4
20260504223104 69 186 6.1 13.0 0.00 0.00 0.00 46 1011.4
20260504222549 69 191 7.0 13.0 0.00 0.00 0.00 44 1011.5
20260504222050 69 224 6.1 13.0 0.00 0.00 0.00 45 1011.5
20260504221600 69 220 4.3 11.3 0.00 0.00 0.00 45 1011.6
20260504221049 69 254 5.2 13.9 0.00 0.00 0.00 45 1011.5
20260504220551 69 216 6.1 14.8 0.00 0.00 0.00 45 1011.7
20260504220059 69 281 7.0 14.8 0.00 0.00 0.00 46 1011.7
20260504215553 69 213 7.8 15.6 0.00 0.00 0.00 44 1011.6
20260504215054 69 223 7.0 15.6 0.00 0.00 0.00 46 1011.7
20260504214556 69 226 8.7 15.6 0.00 0.00 0.00 44 1011.7
20260504214050 69 219 8.7 15.6 0.00 0.00 0.00 44 1011.8
20260504213550 69 239 8.7 15.6 0.00 0.00 0.00 44 1011.8
20260504213053 69 219 8.7 15.6 0.00 0.00 0.00 44 1011.8
20260504212550 70 222 7.8 13.9 0.00 0.00 0.00 45 1012.0
20260504212053 70 223 4.3 14.8 0.00 0.00 0.00 46 1011.9
20260504211558 70 205 7.0 14.8 0.00 0.00 0.00 48 1011.9
20260504211051 70 231 5.2 16.5 0.00 0.00 0.00 44 1011.9
20260504210550 70 224 5.2 17.4 0.00 0.00 0.00 50 1011.8
20260504210055 69 212 9.6 17.4 0.00 0.00 0.00 47 1011.7
20260504205550 68 238 7.0 15.6 0.00 0.00 0.00 48 1011.7
20260504205051 67 228 6.1 15.6 0.00 0.00 0.00 50 1011.7
20260504204555 68 224 7.8 15.6 0.00 0.00 0.00 47 1011.8
20260504204050 69 279 8.7 13.9 0.00 0.00 0.00 46 1011.5
20260504203551 69 236 6.1 11.3 0.00 0.00 0.00 49 1011.5
20260504203103 68 244 7.0 11.3 0.00 0.00 0.00 48 1011.7
20260504202548 68 269 6.1 10.4 0.00 0.00 0.00 50 1011.7
20260504202049 68 241 4.3 12.2 0.00 0.00 0.00 50 1011.8
20260504201556 67 214 8.7 12.2 0.00 0.00 0.00 51 1012.0
20260504201050 68 179 6.1 16.5 0.00 0.00 0.00 56 1011.8
20260504200548 67 222 9.6 16.5 0.00 0.00 0.00 51 1011.9
20260504200053 67 212 7.0 14.8 0.00 0.00 0.00 54 1012.1
20260504195548 67 236 7.0 14.8 0.00 0.00 0.00 51 1012.0
20260504195048 66 234 8.7 13.9 0.00 0.00 0.00 53 1012.2
20260504194552 66 234 7.8 13.9 0.00 0.00 0.00 52 1012.1
20260504194048 66 252 4.3 13.0 0.00 0.00 0.00 54 1012.2
20260504193548 67 203 8.7 13.0 0.00 0.00 0.00 52 1012.3
20260504193051 68 217 3.5 9.6 0.00 0.00 0.00 54 1012.4
20260504192548 67 203 5.2 12.2 0.00 0.00 0.00 55 1012.5
20260504192050 66 221 6.1 13.0 0.00 0.00 0.00 54 1012.4
20260504191604 66 201 7.0 13.0 0.00 0.00 0.00 56 1012.5
20260504191048 66 223 7.0 13.0 0.00 0.00 0.00 55 1012.4
20260504190549 65 208 5.2 9.6 0.00 0.00 0.00 55 1012.8
20260504190107 65 193 5.2 9.6 0.00 0.00 0.00 55 1012.7
20260504185547 65 252 4.3 9.6 0.00 0.00 0.00 54 1012.7
20260504185048 65 293 1.7 9.6 0.00 0.00 0.00 55 1012.7
20260504184552 66 238 5.2 9.6 0.00 0.00 0.00 53 1012.9
20260504184048 65 324 4.3 9.6 0.00 0.00 0.00 53 1013.1
20260504183547 65 223 3.5 9.6 0.00 0.00 0.00 54 1013.3
20260504183051 65 326 4.3 9.6 0.00 0.00 0.00 56 1013.5
20260504182548 64 314 4.3 9.6 0.00 0.00 0.00 55 1013.4
20260504182050 64 332 5.2 9.6 0.00 0.00 0.00 54 1013.5
20260504181557 64 306 5.2 10.4 0.00 0.00 0.00 57 1013.4
20260504181048 63 308 5.2 13.0 0.00 0.00 0.00 55 1013.5
20260504180548 63 253 4.3 13.0 0.00 0.00 0.00 56 1013.4
20260504180107 63 278 5.2 18.2 0.00 0.00 0.00 54 1013.6
20260504175552 63 226 7.0 18.2 0.00 0.00 0.00 55 1013.5
20260504175050 63 251 8.7 15.6 0.00 0.00 0.00 55 1013.5
20260504174552 63 283 7.0 15.6 0.00 0.00 0.00 55 1013.5
20260504174048 63 314 7.0 15.6 0.00 0.00 0.00 54 1013.5
20260504173547 64 345 7.0 18.2 0.00 0.00 0.00 54 1013.7
20260504173052 63 293 8.7 18.2 0.00 0.00 0.00 52 1013.6
20260504172547 64 319 7.8 18.2 0.00 0.00 0.00 52 1013.4
20260504172048 64 288 6.1 15.6 0.00 0.00 0.00 54 1013.6
20260504171553 64 268 7.0 17.4 0.00 0.00 0.00 52 1013.5
20260504171048 64 250 7.8 17.4 0.00 0.00 0.00 54 1013.6
20260504170547 64 251 9.6 15.6 0.00 0.00 0.00 54 1013.4
20260504151048 56 253 5.2 13.9 0.00 0.00 0.00 61 1014.7
20260504150548 56 345 7.8 17.4 0.00 0.00 0.00 60 1014.7
20260504141049 54 219 4.3 9.6 0.00 0.00 0.00 61 1015.3
20260504140549 53 314 2.6 5.2 0.00 0.00 0.00 62 1015.2
20260504130550 48 209 3.5 6.1 0.00 0.00 0.00 68 1014.8